sat.trackr.live / text

‹ back to catalog

STARLINK-35179

NORAD 66066 · 2025-235J

PAYLOAD ACTIVE UNKNOWN

§ Identity

Operator
Country
US
Launch date
2025-10-19
Launch site
AFETR
Launch vehicle
Mass (kg)
RCS (m²)

Purposes: comms

External: N2YO · Heavens-Above · Gunter

§ Orbital elements

Epoch: 2026-05-25T00:16:43.178304Z

Period
94.10 min
Inclination
53.1624°
Eccentricity
0.0000870
Mean motion
15.30207825 rev/d
Perigee alt
474.6 km
Apogee alt
475.8 km
Semi-major
6,853.3 km
B*
4.2993e-4
RAAN
250.9765°
Arg perigee
97.9797°
Mean anomaly
262.1302°
Rev number
3,460

§ Raw data

STARLINK-351791 66066U 25235J   26145.01161086  .00012399  00000+0  42993-3 0  99952 66066  53.1624 250.9765 0000870  97.9797 262.1302 15.30207825 34606

JSON: /api/v1/satellites/66066 · /tle

For live sub-satellite position, see the globe view (requires WebGL).

§ Visibility from observer

Set your observer location to see the next 7 days of passes ≥ 10°. The values pass through the URL so the page stays shareable.

No JS? Fill the form by hand. The geolocation button needs JavaScript.